Date String (YYYY-MM-DD hh:mm:ss) UTC,Instrument flags,Ambient pressure (hPa),Sample flow (lpm),Bypass flow (lpm),Sample temperature (°C),Ambient temperature (°C),ASC tube jacket temperature (°C),LED temperature (°C),Box temperature (°C),Sample RH (%),Span deviation,Mass concentration (μg/m³),Mass concentration (μg/m³),Mass concentration (μg/m³)
DateTimeUTC,F1_M11,P_M11,Q1_M11,Q2_M11,T1_M11,T2_M11,T3_M11,T4_M11,T5_M11,U1_M11,ZSPAN_M11,X0_M11,X2_M11,X1_M11
2021-11-27 15:00:00,,0830.1,4.99,0.00,24.4,23.7,00.0,33.5,26.2,09.5,0000.0,0009.73,0002.72,0001.77
2021-11-27 15:01:00,,0830.1,5.01,0.00,24.4,23.7,00.0,33.5,26.2,09.6,0000.0,0009.01,0002.71,0001.77
2021-11-27 15:02:00,,0830.1,4.99,0.00,24.4,23.7,00.0,33.5,26.2,09.5,0000.0,0008.77,0002.67,0001.74
2021-11-27 15:03:00,,0830.1,5.00,0.00,24.4,23.7,00.0,33.5,26.2,09.5,0000.0,0008.91,0002.60,0001.73
2021-11-27 15:04:00,,0830.1,5.00,0.00,24.4,23.7,00.0,33.5,26.2,09.5,0000.0,0008.83,0002.56,0001.72
2021-11-27 15:05:00,,0830.0,5.00,0.00,24.4,23.7,00.0,33.5,26.2,09.5,0000.0,0008.13,0002.54,0001.71
2021-11-27 15:06:00,,0830.1,5.00,0.00,24.4,23.6,00.0,33.5,26.2,09.5,0000.0,0007.93,0002.45,0001.68
2021-11-27 15:07:00,,0830.1,4.99,0.00,24.4,23.6,00.0,33.4,26.1,09.5,0000.0,0008.58,0002.37,0001.67
2021-11-27 15:08:00,,0830.1,5.01,0.00,24.4,23.6,00.0,33.4,26.1,09.6,0000.0,0008.88,0002.34,0001.66
2021-11-27 15:09:00,,0830.1,4.99,0.00,24.4,23.6,00.0,33.4,26.1,09.6,0000.0,0008.15,0002.33,0001.66
2021-11-27 15:10:00,,0830.1,5.00,0.00,24.3,23.6,00.0,33.4,26.1,09.6,0000.0,0007.39,0002.35,0001.66
2021-11-27 15:11:00,,0830.1,5.00,0.00,24.4,23.6,00.0,33.4,26.1,09.6,0000.0,0007.25,0002.37,0001.65
2021-11-27 15:12:00,,0830.1,4.99,0.00,24.4,23.6,00.0,33.4,26.1,09.6,0000.0,0007.44,0002.44,0001.64
2021-11-27 15:13:00,,0830.1,5.00,0.00,24.3,23.6,00.0,33.4,26.1,09.6,0000.0,0007.88,0002.48,0001.64
2021-11-27 15:14:00,,0830.1,5.01,0.00,24.4,23.6,00.0,33.4,26.2,09.6,0000.0,0008.11,0002.51,0001.64
2021-11-27 15:15:00,,0830.1,5.01,0.00,24.4,23.6,00.0,33.4,26.1,09.6,0000.0,0008.10,0002.52,0001.63
2021-11-27 15:16:00,,0830.1,4.99,0.00,24.4,23.6,00.0,33.4,26.1,09.6,0000.0,0008.02,0002.54,0001.64
2021-11-27 15:17:00,,0830.1,5.01,0.00,24.4,23.7,00.0,33.4,26.2,09.6,0000.0,0008.39,0002.68,0001.66
2021-11-27 15:18:00,,0830.1,4.99,0.00,24.4,23.7,00.0,33.4,26.1,09.6,0000.0,0008.43,0002.76,0001.68
2021-11-27 15:19:00,,0830.1,5.00,0.00,24.4,23.7,00.0,33.4,26.1,09.6,0000.0,0007.69,0002.80,0001.70
2021-11-27 15:20:00,,0830.1,5.01,0.00,24.4,23.7,00.0,33.4,26.1,09.6,0000.0,0007.68,0002.79,0001.71
2021-11-27 15:21:00,,0830.2,5.00,0.00,24.4,23.7,00.0,33.4,26.1,09.6,0000.0,0008.29,0002.87,0001.71
2021-11-27 15:22:00,,0830.2,4.99,0.00,24.4,23.7,00.0,33.4,26.1,09.7,0000.0,0008.33,0002.86,0001.71
2021-11-27 15:23:00,,0830.2,5.01,0.00,24.4,23.6,00.0,33.4,26.2,09.7,0000.0,0008.37,0002.86,0001.72
2021-11-27 15:24:00,,0830.3,4.99,0.00,24.3,23.6,00.0,33.4,26.1,09.7,0000.0,0008.06,0002.89,0001.74
2021-11-27 15:25:00,,0830.3,5.00,0.00,24.3,23.6,00.0,33.4,26.1,09.8,0000.0,0007.66,0002.89,0001.75
2021-11-27 15:26:00,,0830.4,4.99,0.00,24.3,23.6,00.0,33.4,26.1,09.8,0000.0,0007.47,0002.89,0001.77
2021-11-27 15:27:00,,0830.5,5.02,0.00,24.3,23.6,00.0,33.4,26.1,09.8,0000.0,0007.55,0002.90,0001.77
2021-11-27 15:28:00,,0830.4,4.99,0.00,24.3,23.6,00.0,33.4,26.1,09.8,0000.0,0007.32,0002.84,0001.76
2021-11-27 15:29:00,,0830.4,5.01,0.00,24.3,23.5,00.0,33.4,26.1,09.8,0000.0,0006.64,0002.75,0001.74
2021-11-27 15:30:00,,0830.5,4.99,0.00,24.3,23.5,00.0,33.4,26.1,09.9,0000.0,0006.55,0002.72,0001.74
2021-11-27 15:31:00,,0830.4,5.00,0.00,24.3,23.6,00.0,33.4,26.1,09.9,0000.0,0006.47,0002.71,0001.74
2021-11-27 15:32:00,,0830.5,5.00,0.00,24.3,23.6,00.0,33.4,26.1,09.9,0000.0,0005.36,0002.64,0001.74
2021-11-27 15:33:00,,0830.5,5.02,0.00,24.3,23.7,00.0,33.4,26.1,09.8,0000.0,0005.35,0002.68,0001.75
2021-11-27 15:34:00,,0830.5,4.99,0.00,24.3,23.7,00.0,33.4,26.1,09.9,0000.0,0005.26,0002.70,0001.76
2021-11-27 15:35:00,,0830.5,5.01,0.00,24.3,23.7,00.0,33.4,26.1,09.8,0000.0,0005.61,0002.66,0001.74
2021-11-27 15:36:00,,0830.6,4.99,0.00,24.4,23.8,00.0,33.4,26.2,09.7,0000.0,0005.84,0002.73,0001.75
2021-11-27 15:37:00,,0830.5,5.01,0.00,24.4,23.8,00.0,33.4,26.2,09.8,0000.0,0005.78,0002.70,0001.75
2021-11-27 15:38:00,,0830.5,4.99,0.00,24.4,23.7,00.0,33.4,26.2,09.8,0000.0,0006.43,0002.66,0001.74
2021-11-27 15:39:00,,0830.5,5.01,0.00,24.4,23.7,00.0,33.4,26.2,09.8,0000.0,0006.17,0002.64,0001.73
2021-11-27 15:40:00,,0830.6,4.99,0.00,24.4,23.8,00.0,33.4,26.1,09.8,0000.0,0006.25,0002.70,0001.74
2021-11-27 15:41:00,,0830.6,5.01,0.00,24.4,23.8,00.0,33.4,26.2,10.0,0000.0,0006.48,0002.72,0001.73
2021-11-27 15:42:00,,0830.6,4.99,0.00,24.4,23.8,00.0,33.4,26.2,10.0,0000.0,0006.78,0002.77,0001.74
2021-11-27 15:43:00,,0830.6,5.02,0.00,24.4,23.8,00.0,33.4,26.2,10.0,0000.0,0007.47,0002.78,0001.74
2021-11-27 15:44:00,,0830.6,4.98,0.00,24.4,23.8,00.0,33.4,26.2,10.0,0000.0,0007.47,0002.80,0001.75
2021-11-27 15:45:00,,0830.6,5.01,0.00,24.4,23.8,00.0,33.4,26.2,10.0,0000.0,0007.62,0002.82,0001.75
2021-11-27 15:46:00,,0830.6,4.99,0.00,24.4,23.8,00.0,33.4,26.2,10.0,0000.0,0007.39,0002.83,0001.75
2021-11-27 15:47:00,,0830.6,4.99,0.00,24.4,23.8,00.0,33.4,26.2,09.9,0000.0,0007.38,0002.77,0001.75
2021-11-27 15:48:00,,0830.7,5.00,0.00,24.4,23.8,00.0,33.4,26.2,09.9,0000.0,0007.79,0002.76,0001.77
2021-11-27 15:49:00,,0830.7,4.99,0.00,24.4,23.8,00.0,33.4,26.3,09.9,0000.0,0007.58,0002.76,0001.77
2021-11-27 15:50:00,,0830.7,5.01,0.00,24.4,23.9,00.0,33.4,26.3,09.8,0000.0,0008.45,0002.78,0001.79
2021-11-27 15:51:00,,0830.8,4.99,0.00,24.5,23.9,00.0,33.4,26.3,09.8,0000.0,0008.87,0002.77,0001.80
2021-11-27 15:52:00,,0830.8,5.00,0.00,24.5,23.8,00.0,33.4,26.3,09.9,0000.0,0008.79,0002.71,0001.81
2021-11-27 15:53:00,,0830.8,4.99,0.00,24.5,23.9,00.0,33.5,26.3,09.9,0000.0,0009.07,0002.66,0001.81
2021-11-27 15:54:00,,0830.8,5.00,0.00,24.5,23.9,00.0,33.5,26.3,10.0,0000.0,0008.82,0002.66,0001.83
2021-11-27 15:55:00,,0830.8,5.01,0.00,24.5,23.9,00.0,33.5,26.3,09.9,0000.0,0008.80,0002.65,0001.85
2021-11-27 15:56:00,,0830.8,4.99,0.00,24.5,23.9,00.0,33.5,26.3,09.9,0000.0,0008.60,0002.59,0001.87
2021-11-27 15:57:00,,0830.8,5.00,0.00,24.5,23.9,00.0,33.5,26.3,09.9,0000.0,0008.64,0002.59,0001.89
2021-11-27 15:58:00,,0830.8,4.99,0.00,24.5,23.9,00.0,33.5,26.3,09.8,0000.0,0008.90,0002.61,0001.89
2021-11-27 15:59:00,,0830.8,5.01,0.00,24.5,23.8,00.0,33.5,26.3,09.8,0000.0,0008.65,0002.70,0001.90
